TimePST,TemperatureF,Dew PointF,Humidity,Sea Level PressureIn,VisibilityMPH,Wind Direction,Wind SpeedMPH,Gust SpeedMPH,PrecipitationIn,Events,Conditions,WindDirDegrees,DateUTC
12:15 AM,55.4,51.8,88,30.31,10.0,Calm,Calm,-,N/A,,Overcast,0,2012-11-05 08:15:00
12:35 AM,55.4,51.8,88,30.33,10.0,Calm,Calm,-,N/A,,Overcast,0,2012-11-05 08:35:00
12:55 AM,55.4,51.8,88,30.33,10.0,Calm,Calm,-,N/A,,Overcast,0,2012-11-05 08:55:00
1:15 AM,53.6,48.2,82,30.34,6.0,NNE,12.7,16.1,N/A,,Overcast,30,2012-11-05 09:15:00
1:35 AM,51.8,48.2,88,30.35,5.0,NNE,10.4,-,N/A,,Overcast,30,2012-11-05 09:35:00
1:55 AM,51.8,48.2,88,30.35,3.0,ENE,9.2,-,N/A,,Overcast,60,2012-11-05 09:55:00
2:15 AM,51.8,48.2,88,30.36,2.0,NE,10.4,-,N/A,,Overcast,50,2012-11-05 10:15:00
2:35 AM,51.8,46.4,82,30.37,2.5,ENE,6.9,-,0.01,,Overcast,60,2012-11-05 10:35:00
2:55 AM,51.8,46.4,82,30.38,3.0,ENE,6.9,-,0.01,,Overcast,60,2012-11-05 10:55:00
3:15 AM,51.8,46.4,82,30.38,3.0,ENE,6.9,-,N/A,,Overcast,70,2012-11-05 11:15:00
3:35 AM,51.8,46.4,82,30.39,4.0,ENE,5.8,-,N/A,,Overcast,60,2012-11-05 11:35:00
3:55 AM,51.8,46.4,82,30.39,7.0,NE,8.1,-,N/A,,Overcast,50,2012-11-05 11:55:00
4:15 AM,51.8,46.4,82,30.39,7.0,NE,6.9,-,N/A,,Overcast,50,2012-11-05 12:15:00
4:35 AM,50.0,46.4,87,30.39,7.0,NE,5.8,-,N/A,,Overcast,50,2012-11-05 12:35:00
4:55 AM,50.0,44.6,82,30.40,7.0,NE,4.6,-,N/A,,Mostly Cloudy,50,2012-11-05 12:55:00
5:15 AM,48.2,44.6,87,30.39,7.0,NE,3.5,-,N/A,,Clear,50,2012-11-05 13:15:00
5:35 AM,50.0,44.6,82,30.39,8.0,NE,5.8,-,N/A,,Mostly Cloudy,40,2012-11-05 13:35:00
5:55 AM,48.2,44.6,87,30.39,8.0,NNE,4.6,-,N/A,,Partly Cloudy,30,2012-11-05 13:55:00
6:15 AM,48.2,44.6,87,30.39,7.0,Calm,Calm,-,N/A,,Partly Cloudy,0,2012-11-05 14:15:00
6:35 AM,48.2,44.6,87,30.39,7.0,Calm,Calm,-,N/A,,Mostly Cloudy,0,2012-11-05 14:35:00
6:55 AM,48.2,44.6,87,30.39,7.0,Calm,Calm,-,N/A,,Overcast,0,2012-11-05 14:55:00
7:15 AM,50.0,46.4,87,30.41,5.0,Calm,Calm,-,N/A,,Overcast,0,2012-11-05 15:15:00
7:35 AM,48.2,44.6,87,30.40,5.0,Calm,Calm,-,N/A,,Overcast,0,2012-11-05 15:35:00
7:55 AM,50.0,46.4,87,30.41,5.0,Calm,Calm,-,N/A,,Overcast,0,2012-11-05 15:55:00
8:15 AM,51.8,46.4,82,30.41,7.0,NNE,3.5,-,N/A,,Overcast,20,2012-11-05 16:15:00
8:35 AM,51.8,46.4,82,30.41,7.0,Calm,Calm,-,N/A,,Overcast,0,2012-11-05 16:35:00
8:55 AM,51.8,46.4,82,30.42,7.0,NNE,3.5,-,N/A,,Overcast,30,2012-11-05 16:55:00
9:15 AM,51.8,46.4,82,30.41,7.0,Calm,Calm,-,N/A,,Overcast,0,2012-11-05 17:15:00
9:35 AM,51.8,46.4,82,30.42,7.0,NE,5.8,-,N/A,,Overcast,40,2012-11-05 17:35:00
9:55 AM,51.8,44.6,76,30.41,8.0,ENE,4.6,-,N/A,,Overcast,60,2012-11-05 17:55:00
10:15 AM,51.8,46.4,82,30.42,5.0,NE,4.6,-,N/A,,Overcast,50,2012-11-05 18:15:00
10:35 AM,51.8,46.4,82,30.42,3.0,NNE,8.1,-,N/A,,Overcast,30,2012-11-05 18:35:00
10:55 AM,51.8,46.4,82,30.42,5.0,NNE,8.1,-,N/A,,Overcast,30,2012-11-05 18:55:00
11:15 AM,51.8,44.6,76,30.42,5.0,NNE,4.6,-,N/A,,Overcast,20,2012-11-05 19:15:00
11:35 AM,51.8,46.4,82,30.42,8.0,North,4.6,-,N/A,,Overcast,10,2012-11-05 19:35:00
11:55 AM,51.8,46.4,82,30.41,3.0,NNE,5.8,-,N/A,,Overcast,20,2012-11-05 19:55:00
12:15 PM,51.8,46.4,82,30.40,8.0,North,6.9,-,N/A,,Overcast,360,2012-11-05 20:15:00
12:35 PM,53.6,46.4,77,30.41,9.0,North,5.8,-,N/A,,Overcast,10,2012-11-05 20:35:00
12:55 PM,53.6,46.4,77,30.40,10.0,North,9.2,-,N/A,,Overcast,360,2012-11-05 20:55:00
1:15 PM,53.6,46.4,77,30.40,10.0,North,10.4,-,N/A,,Overcast,10,2012-11-05 21:15:00
1:55 PM,53.6,44.6,72,30.38,10.0,NNE,6.9,-,N/A,,Partly Cloudy,20,2012-11-05 21:55:00
2:15 PM,53.6,44.6,72,30.38,10.0,North,5.8,-,N/A,,Clear,360,2012-11-05 22:15:00
2:35 PM,53.6,44.6,72,30.37,10.0,NNE,6.9,-,N/A,,Clear,30,2012-11-05 22:35:00
2:55 PM,53.6,44.6,72,30.35,10.0,NNE,8.1,-,N/A,,Clear,30,2012-11-05 22:55:00
3:15 PM,53.6,44.6,72,30.36,10.0,North,5.8,-,N/A,,Clear,10,2012-11-05 23:15:00
3:35 PM,51.8,44.6,76,30.36,10.0,North,5.8,-,N/A,,Clear,10,2012-11-05 23:35:00
3:55 PM,51.8,44.6,76,30.35,10.0,North,5.8,-,N/A,,Clear,10,2012-11-05 23:55:00
4:15 PM,51.8,44.6,76,30.33,10.0,North,5.8,-,N/A,,Clear,10,2012-11-06 00:15:00
4:35 PM,50.0,42.8,76,30.33,10.0,North,6.9,-,N/A,,Clear,360,2012-11-06 00:35:00
4:55 PM,50.0,39.2,66,30.32,10.0,Calm,Calm,-,N/A,,Clear,0,2012-11-06 00:55:00
5:15 PM,48.2,39.2,71,30.31,10.0,Calm,Calm,-,N/A,,Clear,0,2012-11-06 01:15:00
5:35 PM,46.4,39.2,76,30.32,10.0,Calm,Calm,-,N/A,,Clear,0,2012-11-06 01:35:00
5:55 PM,46.4,39.2,76,30.31,10.0,Calm,Calm,-,N/A,,Clear,0,2012-11-06 01:55:00
6:15 PM,46.4,39.2,76,30.30,10.0,NNE,5.8,-,N/A,,Clear,30,2012-11-06 02:15:00
6:35 PM,48.2,42.8,82,30.30,10.0,NE,6.9,-,N/A,,Clear,40,2012-11-06 02:35:00
6:55 PM,48.2,42.8,82,30.29,10.0,NNE,10.4,-,N/A,,Clear,20,2012-11-06 02:55:00
7:15 PM,48.2,42.8,82,30.29,10.0,NNE,8.1,-,N/A,,Clear,30,2012-11-06 03:15:00
7:35 PM,48.2,41.0,76,30.27,10.0,NNE,10.4,-,N/A,,Clear,20,2012-11-06 03:35:00
7:55 PM,48.2,39.2,71,30.27,10.0,NNE,11.5,-,N/A,,Clear,20,2012-11-06 03:55:00
8:15 PM,48.2,39.2,71,30.26,10.0,NNE,9.2,-,N/A,,Clear,20,2012-11-06 04:15:00
8:35 PM,48.2,39.2,71,30.26,10.0,NNE,8.1,-,N/A,,Clear,20,2012-11-06 04:35:00
8:55 PM,48.2,39.2,71,30.25,10.0,North,6.9,-,N/A,,Clear,10,2012-11-06 04:55:00
9:15 PM,46.4,39.2,76,30.24,10.0,NE,4.6,-,N/A,,Clear,50,2012-11-06 05:15:00
9:35 PM,46.4,39.2,76,30.23,10.0,NNE,3.5,-,N/A,,Clear,20,2012-11-06 05:35:00
9:55 PM,44.6,39.2,81,30.22,10.0,Calm,Calm,-,N/A,,Clear,0,2012-11-06 05:55:00
10:15 PM,42.8,37.4,81,30.22,10.0,Calm,Calm,-,N/A,,Clear,0,2012-11-06 06:15:00
10:35 PM,42.8,37.4,81,30.22,10.0,Calm,Calm,-,N/A,,Clear,0,2012-11-06 06:35:00
10:55 PM,41.0,37.4,87,30.21,10.0,Calm,Calm,-,N/A,,Clear,0,2012-11-06 06:55:00
11:15 PM,41.0,35.6,81,30.21,10.0,SW,3.5,-,N/A,,Clear,220,2012-11-06 07:15:00
11:35 PM,41.0,37.4,87,30.19,10.0,Calm,Calm,-,N/A,,Clear,0,2012-11-06 07:35:00
11:55 PM,41.0,37.4,87,30.20,10.0,Calm,Calm,-,N/A,,Clear,0,2012-11-06 07:55:00